User: anonymous   Login
Location: Unspecified
(0.0000°N, 0.0000°E)
Time: 08:33:01
(UTC+02:00)
Language:

CZ-4B DEB - Orbit

View from above orbital plane
View from above orbital plane
View from above satellite
View from above satellite

Ground track
Ground track

The orbit data is extracted from the following two-line orbital elements,

1 33411U 08053D   15181.49072242  .00008946  00000-0  33713-3 0  9991
2 33411 097.4854 202.6429 0008649 041.3177 318.8715 15.27280139365685
Epoch (UTC): 30 June 2015 11:46:38
Eccentricity: 0.0008649
inclination: 97.4854°
perigee height: 478 km
apogee height: 490 km
right ascension of ascending node: 202.6429°
argument of perigee: 41.3177°
revolutions per day: 15.27280139
mean anomaly at epoch: 318.8715°
orbit number at epoch: 36568

The dashed part of the orbit path shows where the satellite is in the earth's shadow,  

DLR